Location: LewisvilleTX
(33.0462°N, 96.9942°W)
Time: 16:59:22
(UTC+00:00)

Envisat - Pass Details

Date: 03 October 2021
Orbit: 764 x 766 km, 98.2° (Epoch: 18 October)

Event Time Altitude Azimuth Distance (km) Brightness Sun altitude
Rises 10:43:49 0° 26° (NNE) 3,232 6.7 -21.7°
Reaches altitude 10° 10:46:28 10° 39° (NE) 2,302 6.1 -21.2°
Maximum altitude 10:50:44 27° 96° (E) 1,432 5.1 -20.3°
Drops below altitude 10° 10:54:59 10° 154° (SSE) 2,291 5.7 -19.4°
Sets 10:57:36 0° 166° (SSE) 3,212 6.3 -18.9°
